Regional Weather Roundup
Issued by NWS Albany, NY

Home | Current Version | Previous Version | Graphics & Text | Print | Product List | Glossary On
Versions: 1 2 3 4 5 6 7 8 9 10 11 12 13 14 15 16 17 18 19 20 21 22 23 24 25 26 27 28 29 30 31 32 33 34 35 36 37 38 39 40 41 42 43 44 45 46 47 48 49 50
000
ASUS41 KALY 050010
RWRALY

NEW YORK STATE HOURLY WEATHER ROUNDUP
NATIONAL WEATHER SERVICE ALBANY NY
800 PM EDT MON MAY 04 2015

NOTE: "FAIR" INDICATES FEW OR NO CLOUDS BELOW 12,000 FEET WITH NO
SIGNIFICANT WEATHER AND/OR NO OBSTRUCTIONS TO VISIBILITY.

NYZ032-033-038>043-046>054-057>066-NYZ062>081-050100-
EAST


CITY           SKY/WX    TMP DP  RH WIND       PRES   REMARKS
ALBANY         MOCLDY    80  39  23 SW6       30.01S
GLENS FALLS    CLOUDY    79  41  25 SW5       29.99S
POUGHKEEPSIE   CLEAR     81  39  22 S5        30.06R
NEWBURGH       CLEAR     79  43  27 SW12G23   30.09S
MONTGOMERY     CLEAR     76  43  30 SW10      30.07R
WHITE PLAINS   CLEAR     69  45  41 S7        30.12R
ISLIP          PTCLDY    65  44  46 SW16G26   30.15S
NEW YORK CITY  CLEAR     74  45  35 S10       30.12R
CENTRAL PARK   CLEAR     80  41  24 VRB7      30.15R
$$

NYZ005>009-017-018-044>046-055-056-050100-
CENTRAL


CITY           SKY/WX    TMP DP  RH WIND       PRES   REMARKS
FULTON         LGT RAIN  60  52  74 W3        30.08R
SYRACUSE       CLOUDY    68  49  50 NW14      30.08R
ROME           LGT RAIN  71  47  42 NW16G25   30.07R
ELMIRA         CLOUDY    78  45  30 W6        30.07R
BINGHAMTON     CLOUDY    75  41  29 W14G23    30.09R
MONTICELLO     PTCLDY    73  39  29 SW5       30.13R
$$

NYZ026>034-041>043-050100-
NORTH


CITY           SKY/WX    TMP DP  RH WIND       PRES   REMARKS
WATERTOWN      LGT RAIN  59  53  80 SW9       30.06R
FORT DRUM      NOT AVBL
MASSENA        LGT RAIN  60  57  89 SW5       30.02S
SARANAC LAKE   CLOUDY    65  46  50 W5        30.05R
PLATTSBURGH    LGT RAIN  73  46  38 NW10G17   29.99R
$$

NYZ001>004-010>016-019>021-050100-
WEST


CITY           SKY/WX    TMP DP  RH WIND       PRES   REMARKS
NIAGARA FALLS  CLOUDY    60  51  72 SW12      30.10R
BUFFALO        CLOUDY    56  50  80 SW17      30.12R
DUNKIRK        CLOUDY    61  54  77 SW14G20   30.14R
JAMESTOWN      CLOUDY    61  54  77 SW13G20   30.19R
WELLSVILLE     CLOUDY    69  47  45 NW14      30.17R
ROCHESTER      CLOUDY    68  53  58 W18G25    30.09R
PENN YAN       CLOUDY    73  48  41 W8        30.09R
$$

             KEY
       WCI = WIND CHILL INDEX
       VSB = VISIBILITY
       HX  = HEAT INDEX
$$



USA.gov is the U.S. government's official web portal to all federal, state and local government web resources and services.